EW3948 Weather Reports


Display with metric or nautical units.
time (UTC)temp
F
wind
direction
speed
MPH
gust
MPH
rain 1hr
in
rain 24hr
in
rain mn
in
humidity
%
barometer
mb
20260505023508 65 0.0 0.0 0.00 0.00 0.00 62 1008.7
20260505023027 65 0.0 0.0 0.00 0.00 0.00 62 1008.7
20260505022503 65 0.0 0.0 0.00 0.00 0.00 62 1008.7
20260505022002 65 0.0 0.0 0.00 0.00 0.00 62 1008.8
20260505021515 65 0.0 0.0 0.00 0.00 0.00 61 1008.8
20260505021006 66 0.0 0.0 0.00 0.00 0.00 61 1008.8
20260505020503 66 0.0 0.0 0.00 0.00 0.00 61 1008.8
20260505020016 66 0.0 0.0 0.00 0.00 0.00 60 1008.7
20260505015507 66 0.0 0.0 0.00 0.00 0.00 59 1008.8
20260505015004 66 0.0 0.0 0.00 0.00 0.00 59 1008.7
20260505014521 67 0.0 0.0 0.00 0.00 0.00 58 1008.8
20260505014012 67 0.0 0.0 0.00 0.00 0.00 57 1008.7
20260505013503 67 0.0 0.0 0.00 0.00 0.00 57 1008.6
20260505013016 67 0.0 0.0 0.00 0.00 0.00 57 1008.6
20260505012507 68 0.0 0.0 0.00 0.00 0.00 56 1008.5
20260505012007 68 0.0 0.0 0.00 0.00 0.00 55 1008.6
20260505011514 68 0.0 0.0 0.00 0.00 0.00 54 1008.6
20260505011006 69 0.0 0.0 0.00 0.00 0.00 53 1008.5
20260505010505 69 0.0 0.0 0.00 0.00 0.00 53 1008.5
20260505010009 69 0.0 0.0 0.00 0.00 0.00 53 1008.4
20260505005505 70 0.0 0.0 0.00 0.00 0.00 52 1008.3
20260505005008 70 0.0 0.0 0.00 0.00 0.00 51 1008.4
20260505004506 71 0.0 0.0 0.00 0.00 0.00 51 1008.4
20260505004003 71 0.0 0.0 0.00 0.00 0.00 50 1008.4
20260505003511 71 0.0 0.0 0.00 0.00 0.00 49 1008.5
20260505003006 71 0.0 0.0 0.00 0.00 0.00 49 1008.5
20260505002505 72 0.0 0.0 0.00 0.00 0.00 48 1008.5
20260505002004 72 0.0 0.0 0.00 0.00 0.00 47 1008.6
20260505001506 72 0.0 0.0 0.00 0.00 0.00 47 1008.6
20260505001004 72 0.0 0.0 0.00 0.00 0.00 48 1008.6
20260505000504 72 0.0 0.0 0.00 0.00 0.00 47 1008.6
20260505000016 73 0.0 0.0 0.00 0.00 0.00 46 1008.6
20260504235504 73 0.0 0.0 0.00 0.00 0.00 46 1008.4
20260504235004 73 0.0 0.0 0.00 0.00 0.00 46 1008.5
20260504234516 73 0.0 0.0 0.00 0.00 0.00 45 1008.5
20260504234006 73 0.0 0.0 0.00 0.00 0.00 44 1008.6
20260504233504 73 0.0 0.0 0.00 0.00 0.00 44 1008.6
20260504233013 73 0.0 0.0 0.00 0.00 0.00 43 1008.6
20260504232508 73 0.0 0.0 0.00 0.00 0.00 44 1008.6
20260504232006 73 0.0 0.0 0.00 0.00 0.00 44 1008.7
20260504231510 74 0.0 0.0 0.00 0.00 0.00 46 1008.6
20260504231004 74 0.0 0.0 0.00 0.00 0.00 47 1008.7
20260504230504 74 0.0 0.0 0.00 0.00 0.00 47 1008.7
20260504230006 74 0.0 0.0 0.00 0.00 0.00 46 1008.8
20260504225502 74 0.0 0.0 0.00 0.00 0.00 45 1008.8
20260504225009 74 0.0 0.0 0.00 0.00 0.00 44 1008.8
20260504224513 74 0.0 0.0 0.00 0.00 0.00 44 1008.8
20260504224002 74 0.0 0.0 0.00 0.00 0.00 46 1008.7
20260504223506 75 0.0 0.0 0.00 0.00 0.00 45 1008.8
20260504223015 75 0.0 0.0 0.00 0.00 0.00 44 1008.8
20260504222504 75 0.0 0.0 0.00 0.00 0.00 44 1008.8
20260504222006 75 0.0 0.0 0.00 0.00 0.00 45 1008.8
20260504221520 75 0.0 0.0 0.00 0.00 0.00 46 1008.8
20260504221007 75 0.0 0.0 0.00 0.00 0.00 45 1008.9
20260504220505 75 0.0 0.0 0.00 0.00 0.00 49 1008.9
20260504220025 75 0.0 0.0 0.00 0.00 0.00 48 1008.9
20260504215508 75 0.0 0.0 0.00 0.00 0.00 50 1008.9
20260504215004 75 0.0 0.0 0.00 0.00 0.00 50 1008.9
20260504214517 75 0.0 0.0 0.00 0.00 0.00 49 1009.0
20260504214005 75 0.0 0.0 0.00 0.00 0.00 47 1009.0
20260504213502 76 0.0 0.0 0.00 0.00 0.00 48 1008.9
20260504213012 76 0.0 0.0 0.00 0.00 0.00 49 1008.9
20260504212506 75 0.0 0.0 0.00 0.00 0.00 47 1008.9
20260504212007 76 0.0 0.0 0.00 0.00 0.00 46 1008.9
20260504211527 76 0.0 0.0 0.00 0.00 0.00 49 1009.0
20260504211003 76 0.0 0.0 0.00 0.00 0.00 48 1009.0
20260504210507 76 0.0 0.0 0.00 0.00 0.00 49 1009.0
20260504210025 75 0.0 0.0 0.00 0.00 0.00 47 1009.1
20260504205503 75 0.0 0.0 0.00 0.00 0.00 50 1009.1
20260504205007 75 0.0 0.0 0.00 0.00 0.00 51 1009.2
20260504204523 75 0.0 0.0 0.00 0.00 0.00 56 1009.3
20260504204008 73 0.0 0.0 0.00 0.00 0.00 55 1009.4
20260504203508 73 0.0 0.0 0.00 0.00 0.00 55 1009.5
20260504203012 73 0.0 0.0 0.00 0.00 0.00 55 1009.6
20260504202503 73 0.0 0.0 0.00 0.00 0.00 54 1009.7
20260504202002 73 0.0 0.0 0.00 0.00 0.00 55 1009.8
20260504201517 73 0.0 0.0 0.00 0.00 0.00 58 1009.8
20260504201004 73 0.0 0.0 0.00 0.00 0.00 56 1009.9
20260504200508 73 0.0 0.0 0.00 0.00 0.00 55 1009.9
20260504200013 73 0.0 0.0 0.00 0.00 0.00 55 1010.0
20260504195508 73 0.0 0.0 0.00 0.00 0.00 56 1010.0
20260504195007 72 0.0 0.0 0.00 0.00 0.00 55 1010.0
20260504194511 72 0.0 0.0 0.00 0.00 0.00 56 1010.0
20260504194003 72 0.0 0.0 0.00 0.00 0.00 55 1010.1
20260504193508 72 0.0 0.0 0.00 0.00 0.00 56 1010.2
20260504193026 72 0.0 0.0 0.00 0.00 0.00 57 1010.2
20260504192507 71 0.0 0.0 0.00 0.00 0.00 56 1010.1
20260504192006 71 0.0 0.0 0.00 0.00 0.00 56 1010.1
20260504191518 70 0.0 0.0 0.00 0.00 0.00 58 1010.0
20260504191006 70 0.0 0.0 0.00 0.00 0.00 58 1010.1
20260504190507 70 0.0 0.0 0.00 0.00 0.00 58 1010.2
20260504190020 70 0.0 0.0 0.00 0.00 0.00 59 1010.3
20260504185512 69 0.0 0.0 0.00 0.00 0.00 60 1010.4
20260504185006 69 0.0 0.0 0.00 0.00 0.00 59 1010.3
20260504184520 68 0.0 0.0 0.00 0.00 0.00 59 1010.4
20260504184009 67 0.0 0.0 0.00 0.00 0.00 60 1010.5
20260504183512 68 0.0 0.0 0.00 0.00 0.00 61 1010.6
20260504183017 67 0.0 0.0 0.00 0.00 0.00 60 1010.6
20260504182506 66 0.0 0.0 0.00 0.00 0.00 61 1010.7
20260504182009 66 0.0 0.0 0.00 0.00 0.00 61 1010.8
20260504181523 66 0.0 0.0 0.00 0.00 0.00 62 1010.9
20260504181011 66 0.0 0.0 0.00 0.00 0.00 63 1011.0
20260504180506 65 0.0 0.0 0.00 0.00 0.00 64 1011.0
20260504180016 64 0.0 0.0 0.00 0.00 0.00 65 1011.1
20260504175506 65 0.0 0.0 0.00 0.00 0.00 63 1010.9
20260504175006 65 0.0 0.0 0.00 0.00 0.00 61 1011.5
20260504174522 66 0.0 0.0 0.00 0.00 0.00 60 1012.0
20260504174004 66 0.0 0.0 0.00 0.00 0.00 59 1011.9
20260504173507 67 0.0 0.0 0.00 0.00 0.00 57 1011.7
20260504173023 68 0.0 0.0 0.00 0.00 0.00 56 1011.5
20260504172507 68 0.0 0.0 0.00 0.00 0.00 55 1011.3
20260504172008 69 0.0 0.0 0.00 0.00 0.00 55 1011.1
20260504171523 69 0.0 0.0 0.00 0.00 0.00 55 1011.1
20260504171014 69 0.0 0.0 0.00 0.00 0.00 60 1011.1
20260504170509 68 0.0 0.0 0.00 0.00 0.00 57 1011.0
20260504151003 59 0.0 0.0 0.00 0.00 0.00 72 1012.5
20260504150504 58 0.0 0.0 0.00 0.00 0.00 73 1012.6
20260504141002 54 0.0 0.0 0.00 0.00 0.00 80 1013.3
20260504140507 54 0.0 0.0 0.00 0.00 0.00 81 1013.4
20260504130506 51 0.0 0.0 0.00 0.00 0.00 84 1013.8
20260504110504 48 0.0 0.0 0.00 0.00 0.00 73 1012.7
20260504100507 48 0.0 0.0 0.00 0.00 0.00 73 1012.7
20260504082008 48 0.0 0.0 0.00 0.00 0.00 78 1013.3
20260504081527 48 0.0 0.0 0.00 0.00 0.00 78 1013.3
20260504081005 48 0.0 0.0 0.00 0.00 0.00 76 1013.3
20260504080507 48 0.0 0.0 0.00 0.00 0.00 74 1013.3
20260504050505 51 0.0 0.0 0.00 0.00 0.00 68 1015.0
20260504050022 51 0.0 0.0 0.00 0.00 0.00 69 1015.0
20260504045502 51 0.0 0.0 0.00 0.00 0.00 68 1015.0
20260504045002 51 0.0 0.0 0.00 0.00 0.00 68 1015.1
20260504044506 50 0.0 0.0 0.00 0.00 0.00 70 1015.0
20260504044003 50 0.0 0.0 0.00 0.00 0.00 69 1014.9
20260504043504 50 0.0 0.0 0.00 0.00 0.00 70 1014.9
20260504043012 50 0.0 0.0 0.00 0.00 0.00 69 1015.0
20260504042505 50 0.0 0.0 0.00 0.00 0.00 74 1014.9
20260504042004 50 0.0 0.0 0.00 0.00 0.00 74 1014.7
20260504041515 50 0.0 0.0 0.00 0.00 0.00 75 1014.6
20260504041003 50 0.0 0.0 0.00 0.00 0.00 79 1014.6
20260504040504 50 0.0 0.0 0.00 0.00 0.00 80 1014.7
20260504040009 51 0.0 0.0 0.00 0.00 0.00 79 1015.0
20260504035503 51 0.0 0.0 0.00 0.00 0.00 75 1015.3
20260504035007 51 0.0 0.0 0.00 0.00 0.00 75 1015.3
20260504034519 51 0.0 0.0 0.00 0.00 0.00 75 1015.4
20260504034003 51 0.0 0.0 0.00 0.00 0.00 74 1015.3
20260504033501 51 0.0 0.0 0.00 0.00 0.00 73 1015.5
20260504033018 51 0.0 0.0 0.00 0.00 0.00 72 1015.5
20260504032502 51 0.0 0.0 0.00 0.00 0.00 71 1015.3
20260504032005 51 0.0 0.0 0.00 0.00 0.00 70 1015.4
20260504031510 52 0.0 0.0 0.00 0.00 0.00 69 1015.3
20260504031005 52 0.0 0.0 0.00 0.00 0.00 68 1015.4
20260504030507 52 0.0 0.0 0.00 0.00 0.00 65 1015.2
20260504030017 52 0.0 0.0 0.00 0.00 0.00 67 1015.1
20260504025504 52 0.0 0.0 0.00 0.00 0.00 66 1015.2
20260504025004 52 0.0 0.0 0.00 0.00 0.00 67 1015.3
20260504024535 53 0.0 0.0 0.00 0.00 0.00 65 1015.4
20260504024008 53 0.0 0.0 0.00 0.00 0.00 64 1015.3